Regional Weather Roundup
Issued by NWS

Home | Current Version | Previous Version | Text Only | Print | Product List | Glossary Off
Versions: 1 2 3 4 5 6 7 8 9 10 11 12 13 14 15 16 17 18 19 20 21 22 23 24 25 26 27 28 29 30 31 32 33 34 35 36 37 38 39 40 41 42 43 44 45 46 47 48 49 50

510
ASUS45 KPSR 280810
RWRAZ

ARIZONA HOURLY REGIONAL WEATHER ROUNDUP
NATIONAL WEATHER SERVICE PHOENIX AZ
100 AM MST THU JUL 28 2016

NOTE: FAIR INDICATES FEW OR NO CLOUDS BELOW 12,000 FEET WITH NO
SIGNIFICANT WEATHER AND/OR OBSTRUCTIONS TO VISIBILITY.

AZZ001>003-036-280900-
NORTHWEST ARIZONA

CITY           SKY/WX    TMP DP  RH WIND       PRES   REMARKS
BULLHEAD CITY  PTCLDY   100  52  19 SE8       29.70S
KINGMAN        PTCLDY    81  48  31 E7        29.97F
$$

AZZ004>008-015-016-018-280900-
NORTH CENTRAL ARIZONA

CITY           SKY/WX    TMP DP  RH WIND       PRES   REMARKS
GRAND CANYON   PTCLDY    58  41  53 NE3       30.27F HAZE
WILLIAMS       CLEAR     61  48  63 S7        30.35S
PRESCOTT       PTCLDY    73  51  46 S9        30.13R
FLAGSTAFF      CLEAR     63  46  54 CALM      30.29S
PAYSON         PTCLDY    77  48  36 CALM      30.17R
PAGE           MOCLDY    88  30  12 SW7       30.01S
$$

AZZ009>014-017-280900-
NORTHEAST ARIZONA

CITY           SKY/WX    TMP DP  RH WIND       PRES   REMARKS
WINSLOW        CLEAR     71  45  39 SW9       30.09F
SAINT JOHNS    CLEAR     68  44  42 S7        30.18R
WINDOW ROCK    CLEAR     62  42  47 W3        30.27R
SHOW LOW       CLEAR     66  48  52 S12       30.26S
$$

AZZ023-280900-
GREATER PHOENIX AREA

CITY           SKY/WX    TMP DP  RH WIND       PRES   REMARKS
PHOENIX        PTCLDY    92  61  35 SE12      29.79R
BUCKEYE        CLEAR     93  59  31 SW6       29.79S
LUKE AFB       CLEAR     97  58  27 SW13      29.76R
DEER VALLEY    CLEAR     92  59  33 SE16      29.82R
SCOTTSDALE     PTCLDY    92  60  34 E9        29.85R
MESA-GATEWAY   CLEAR     90  59  35 SE12      29.84F
$$

AZZ027-028-280900-
SOUTHWEST MARICOPA COUNTY AND PINAL COUNTY

CITY           SKY/WX    TMP DP  RH WIND       PRES   REMARKS
CASA GRANDE    CLEAR     88  63  42 N3        29.86R
GILA BEND      FAIR      98  56  24 S12       29.76S
$$

AZZ503-504-507>509-280900-
SOUTHEAST ARIZONA

CITY           SKY/WX    TMP DP  RH WIND       PRES   REMARKS
TUCSON         CLOUDY    82  66  58 SE8       30.00R THUNDER
DAVIS-MONTHAN  TSTM      77  68  73 S13       29.98R
NOGALES        CLOUDY    71  66  84 N7        30.07R
SIERRA VISTA   CLOUDY    71  64  78 S5        30.15R
DOUGLAS        MOCLDY    69  66  90 N6        30.12R
SAFFORD        CLOUDY    82  59  45 E10       30.02R
$$

AZZ020-021-025-026-031-280900-
SOUTHWEST ARIZONA

CITY           SKY/WX    TMP DP  RH WIND       PRES   REMARKS
YUMA           CLEAR     95  61  32 SW6       29.73R
$$

CAZ031-033-041-043-047-048-061-280900-
SOUTHERN CALIFORNIA

CITY           SKY/WX    TMP DP  RH WIND       PRES   REMARKS
DOWNTOWN L.A.  CLEAR     70  64  81 CALM      29.89F
L.A. AIRPORT   PTCLDY    70  64  81 W5        29.90S
SAN DIEGO      PTCLDY    70  66  87 NW6       29.91S
BURBANK        CLEAR     73  63  70 E6        29.90S
ONTARIO        CLEAR     78  47  33 W5        29.91F
RIVERSIDE      CLEAR     79  51  37 W3        29.91S
PALM SPRINGS   PTCLDY    97  51  21 VRB6      29.74S
EL CENTRO NAS  CLEAR     94  48  20 W12       29.71S
IMPERIAL       CLEAR     90  58  33 W7        29.68F
BLYTHE         PTCLDY    97  61  30 S12       29.71R
NEEDLES        PTCLDY   102  53  19 NW3       29.72F HX 100
$$

NVZ020-UTZ003-280900-
SOUTHERN NEVADA-UTAH

CITY           SKY/WX    TMP DP  RH WIND       PRES   REMARKS
LAS VEGAS      PTCLDY    99  44  15 SW7       29.79S
SALT LAKE CITY CLEAR     79  34  19 S9        30.02S
$$

NMZ009-TXZ055-280900-
NEW MEXICO-WEST TEXAS

CITY           SKY/WX    TMP DP  RH WIND       PRES   REMARKS
ALBUQUERQUE    PTCLDY    76  52  43 CALM      30.22R
EL PASO        PTCLDY    81  60  48 N3        30.07S
$$


........................KEY........................
SKY/WX - SKY CONDITION/WEATHER
TMP    - TEMPERATURE IN FAHRENHEIT
DP     - DEW POINT IN FAHRENHEIT
RH     - RELATIVE HUMIDITY IN PERCENT
WIND   - DIRECTION AND SPEED IN MILES PER HOUR (MPH)
VRB    - VARIABLE WIND DIRECTION
PRES   - MEAN SEA LEVEL PRESSURE IN INCHES OF MERCURY
         F - FALLING PRESSURE   R - RISING PRESSURE
         S - STEADY PRESSURE
VSB    - VISIBILITY IN MILES
HX     - HEAT INDEX IN FAHRENHEIT
WCI    - WIND CHILL INDEX IN FAHRENHEIT
TC     - TEMPERATURE IN CELSIUS WHICH IS ALSO KNOWN AS
         TEMPERATURE IN CENTIGRADE
AFB    - AIR FORCE BASE
         LUKE AFB IS LUKE AIR FORCE BASE
         DAVIS-MONTHAN IS DAVIS-MONTHAN AIR FORCE BASE
NAS    - NAVAL AIR STATION
         EL CENTRO NAS IS EL CENTRO NAVAL AIR STATION
N/A    - NOT AVAILABLE





USA.gov is the U.S. government's official web portal to all federal, state and local government web resources and services.